Modesto, CA

2:44 AM PDT on August 18, 2017 (GMT -0700)
Modesto City-County-Sham

Weather History for KMOD - October, 2012

Change the Weather History Date:

Sunday, October 7, 2012

  Actual Average Record
Temperature  
Mean Temperature 67 °F -  
Max Temperature 80 °F 83 °F 96 °F (1980)
Min Temperature 54 °F 55 °F 41 °F (1941)
Degree Days  
Heating Degree Days 0 1  
Month to date heating degree days 0 4  
Since 1 July heating degree days 0 7  
Cooling Degree Days 2 5  
Month to date cooling degree days 56 37  
Year to date cooling degree days 1671 1649  
Growing Degree Days 17 (Base 50)    
Moisture  
Dew Point 49 °F    
Average Humidity 61    
Maximum Humidity 83    
Minimum Humidity 39    
Precipitation  
Precipitation 0.00 in 0.02 in 1.75 in (1973)
Month to date precipitation T 0.10  
Year to date precipitation 6.85 9.13  
Since 1 July precipitation T  
Snow  
Snow 0.00 in - 0.00 in (2002)
Month to date snowfall 0.0  
Since 1 July snowfall 0.0  
Since 1 September snowfall 0.0  
Snow Depth -    
Sea Level Pressure  
Sea Level Pressure 29.95 in    
Wind  
Wind Speed 7 mph (NNW)    
Max Wind Speed 13 mph    
Max Gust Speed 25 mph    
Visibility 10 miles    
Events      
T = Trace of Precipitation, MM = Missing Value Source: NWS Daily Summary

Daily Weather History Graph

Daily Weather History Graph

Search for Another Location

Airport or City:

Trip Planner

Search our weather history database for the weather conditions in past years. The results will help you decide how hot, cold, wet, or windy it might be!

Date:

Astronomy

Oct. 07, 2012 Rise Set
Actual Time 7:05 AM PDT 6:37 PM PDT
Civil Twilight 6:38 AM PDT 7:03 PM PDT
Nautical Twilight 6:08 AM PDT 7:33 PM PDT
Astronomical Twilight 5:38 AM PDT 8:03 PM PDT
Moon 11:58 PM PDT (10/7) 1:41 PM PDT (10/7)
Length of Visible Light 12h 24m
Length of Day
11h 31m
Waning Gibbous, 55% of the Moon is Illuminated
Oct 7
Waning Gibbous
Oct 8
Last Quarter
Oct 15
New
Oct 21
First Quarter
Oct 29
Full

Hourly Weather History & Observations

Time (PDT) Temp. Dew Point Humidity Pressure Visibility Wind Dir Wind Speed Gust Speed Precip Events Conditions
12:53 AM 60.1 °F 48.0 °F 64% 29.96 in 10.0 mi North 8.1 mph - N/A   Clear
1:53 AM 57.9 °F 48.0 °F 70% 29.96 in 10.0 mi North 6.9 mph - N/A   Clear
2:53 AM 57.0 °F 48.9 °F 74% 29.96 in 10.0 mi North 3.5 mph - N/A   Clear
3:53 AM 55.9 °F 48.9 °F 77% 29.95 in 10.0 mi NNW 3.5 mph - N/A   Clear
4:53 AM 55.9 °F 50.0 °F 80% 29.95 in 10.0 mi North 5.8 mph - N/A   Clear
5:53 AM 55.0 °F 48.9 °F 80% 29.96 in 10.0 mi NNW 6.9 mph - N/A   Clear
6:53 AM 55.0 °F 48.9 °F 80% 29.97 in 10.0 mi North 3.5 mph - N/A   Clear
7:53 AM 55.9 °F 50.0 °F 80% 29.99 in 10.0 mi NNW 4.6 mph - N/A   Clear
8:53 AM 61.0 °F 50.0 °F 67% 29.99 in 10.0 mi NNW 6.9 mph - N/A   Clear
9:53 AM 64.9 °F 50.0 °F 58% 29.99 in 10.0 mi NNW 5.8 mph - N/A   Clear
10:53 AM 66.9 °F 50.0 °F 54% 29.99 in 10.0 mi NW 4.6 mph - N/A   Clear
11:53 AM 72.0 °F 50.0 °F 46% 29.97 in 10.0 mi Variable 4.6 mph - N/A   Clear
12:53 PM 75.0 °F 50.0 °F 41% 29.95 in 10.0 mi NW 8.1 mph - N/A   Clear
1:53 PM 77.0 °F 50.0 °F 39% 29.93 in 10.0 mi NNE 3.5 mph - N/A   Clear
2:53 PM 78.1 °F 51.1 °F 39% 29.90 in 10.0 mi NW 5.8 mph - N/A   Clear
3:53 PM 78.1 °F 52.0 °F 40% 29.89 in 10.0 mi WNW 4.6 mph - N/A   Clear
4:53 PM 79.0 °F 51.1 °F 38% 29.88 in 10.0 mi WNW 10.4 mph - N/A   Clear
5:53 PM 77.0 °F 52.0 °F 42% 29.89 in 10.0 mi NNW 9.2 mph - N/A   Clear
6:53 PM 73.0 °F 46.0 °F 38% 29.90 in 10.0 mi WNW 12.7 mph - N/A   Clear
7:53 PM 69.1 °F 46.9 °F 45% 29.92 in 10.0 mi WNW 11.5 mph - N/A   Clear
8:53 PM 66.0 °F 48.0 °F 52% 29.93 in 10.0 mi NW 12.7 mph - N/A   Clear
9:53 PM 64.0 °F 48.0 °F 56% 29.95 in 10.0 mi NNW 10.4 mph - N/A   Clear
10:53 PM 62.1 °F 48.0 °F 60% 29.95 in 10.0 mi NNW 9.2 mph - N/A   Clear
11:53 PM 61.0 °F 48.0 °F 62% 29.96 in 10.0 mi North 9.2 mph - N/A   Clear